Theta_e
294 301 300 298 295 296 300 301 300 297 293 294 297 297 297 296 296 297 296 294 294 293 291 289 288 287 286 285 285 285 285 284 285 286 286 285 284 284 283 283 282 282 282 282
297 295 290 291 292 295 297 298 298 294 292 293 295 295 297 296 296 297 297 295 294 293 291 289 288 287 286 286 285 285 284 284 284 285 284 285 284 283 283 282 282 282 282 282
296 291 289 291 292 295 294 296 295 295 293 292 293 298 296 294 295 295 296 296 295 294 292 290 288 288 287 286 285 285 284 284 284 284 284 284 284 284 284 283 282 282 282 282
291 289 291 292 292 292 294 290 291 293 295 297 293 298 299 295 294 294 295 296 295 294 292 291 289 288 287 287 286 285 284 284 283 283 284 285 285 285 283 282 282 282 281 281
290 290 291 292 290 290 292 290 292 292 294 293 294 296 301 293 298 297 295 295 295 294 293 292 290 289 288 287 286 285 285 284 283 283 284 284 284 283 282 282 282 282 282 281
288 287 288 289 288 289 291 293 293 292 294 300 293 295 300 299 300 297 294 295 295 294 293 291 290 289 288 287 286 286 285 284 283 283 283 284 284 284 284 283 283 282 282 281
289 288 287 288 291 290 292 294 300 302 303 302 291 293 300 300 298 295 295 294 295 294 293 292 290 289 288 287 287 286 285 285 284 283 283 283 283 283 283 283 283 283 282 282
296 296 288 287 289 293 292 295 301 300 299 297 291 297 302 296 293 293 292 292 293 293 293 292 290 289 288 287 287 286 286 286 284 284 284 284 283 283 283 283 282 282 281 281
295 291 286 287 287 288 292 295 292 295 287 295 297 299 300 295 295 294 293 292 292 292 292 292 290 289 289 288 287 287 287 286 286 285 284 284 284 284 283 283 283 282 282 281
291 295 287 286 286 287 290 290 295 294 298 299 297 296 298 298 297 296 295 294 292 291 291 292 291 289 288 288 288 287 287 287 286 286 285 285 285 284 284 283 283 283 282 282
290 295 288 286 288 290 289 291 290 292 295 299 297 299 301 296 295 295 294 294 292 292 291 291 290 290 288 288 287 287 287 286 286 286 285 285 285 285 284 284 284 283 282 282
289 295 293 291 285 284 287 291 293 297 295 291 293 297 295 294 294 293 293 293 292 291 291 290 290 289 288 287 287 287 286 286 286 286 285 285 285 285 284 284 284 283 282 282
290 294 297 294 289 285 287 287 289 288 290 293 298 297 290 291 293 292 292 292 292 290 289 288 288 288 288 287 287 286 286 286 286 286 285 285 284 284 284 284 284 283 282 282
289 288 296 301 298 291 288 286 287 291 295 294 293 295 295 295 294 294 291 291 291 291 289 288 288 287 287 286 286 286 286 286 286 286 285 285 284 284 284 284 284 283 283 282
288 292 282 286 286 285 289 286 287 288 293 295 296 294 296 295 293 291 290 290 290 291 290 288 288 287 287 286 286 286 285 285 285 285 284 284 284 284 284 284 284 284 283 283
280 290 280 286 284 285 286 285 286 288 290 290 291 291 293 294 292 290 291 290 289 289 290 289 288 287 287 286 286 286 286 285 285 284 284 284 284 284 284 284 284 283 283 282
285 284 287 294 284 285 291 285 287 287 288 291 292 293 293 291 289 290 290 289 289 289 288 289 288 288 287 287 286 285 285 285 284 284 283 283 284 284 283 283 283 283 282 282
281 284 285 292 284 293 293 285 287 289 289 288 290 290 289 288 288 287 287 287 287 288 287 287 287 287 286 285 285 285 284 284 284 283 283 283 283 283 282 282 282 282 282 281
281 285 285 292 292 292 292 285 286 287 294 289 289 289 289 286 285 289 285 284 286 286 286 287 286 285 284 284 284 283 283 282 282 282 282 282 281 282 282 282 282 282 281 281
281 281 289 282 292 294 291 285 282 284 292 286 287 288 288 286 292 291 284 283 285 284 284 284 283 282 282 281 281 282 281 280 280 279 279 279 280 280 280 280 280 280 280 280
285 285 287 287 291 290 288 283 282 292 293 284 285 286 285 289 289 284 283 282 282 281 281 281 279 278 277 277 278 278 277 276 275 276 277 278 278 278 278 278 278 278 279 279
286 287 285 284 287 289 283 282 288 289 284 285 284 284 284 284 284 283 281 279 278 277 276 276 276 274 272 273 274 274 272 272 273 274 275 276 276 276 275 275 276 277 277 277
289 289 288 289 290 286 283 285 283 283 285 283 283 282 281 283 281 281 278 275 273 272 272 272 272 271 270 270 270 270 269 269 271 272 273 273 273 273 274 274 274 274 274 274
283 281 287 286 288 285 284 283 281 280 280 278 277 277 278 279 277 277 276 273 272 271 270 269 270 269 268 267 267 267 266 267 268 268 269 270 270 271 271 272 272 272 273 273
284 283 285 285 285 283 280 279 278 276 276 275 273 273 273 274 273 273 272 270 270 269 268 267 267 267 267 265 265 265 264 264 265 265 266 267 268 269 269 270 270 271 271 271
282 286 287 290 286 286 279 274 274 274 273 273 273 271 269 270 269 269 269 267 267 266 266 265 264 264 264 263 263 263 263 262 262 263 265 265 266 267 268 269 269 270 271 272
Wind_Speed
4 2 2 4 4 3 5 2 2 1 2 4 7 14 15 11 15 17 16 15 16 14 14 13 11 9 8 6 6 6 6 7 5 4 5 8 10 10 12 13 16 17 18 18
2 4 2 2 2 2 1 1 4 1 0 3 8 17 19 16 21 21 20 20 18 15 12 15 14 12 10 8 7 6 6 7 7 6 7 6 7 8 10 10 14 16 17 18
3 5 2 2 3 3 2 3 2 4 4 2 10 10 5 5 18 15 22 18 19 18 17 17 18 16 13 12 10 8 7 7 7 8 7 6 6 6 7 9 10 14 15 16
6 1 2 4 3 1 3 1 1 2 4 4 4 8 8 3 10 16 17 20 20 19 17 19 20 19 17 15 12 10 8 7 7 7 6 6 7 6 5 6 7 8 13 14
3 3 3 2 3 3 4 3 3 1 1 4 1 5 2 2 9 10 15 19 21 20 20 19 23 22 19 16 14 12 10 8 7 6 6 5 6 6 5 4 5 6 9 12
4 2 4 3 4 2 7 3 2 2 0 3 1 3 5 3 3 2 3 11 18 20 20 23 23 20 18 16 14 13 11 10 8 6 5 4 5 4 4 4 4 5 6 7
2 3 2 1 5 2 2 3 1 2 2 3 0 4 11 11 10 7 10 6 12 18 19 18 21 21 20 20 18 15 14 12 11 8 6 4 3 2 2 2 3 4 5 6
5 3 2 2 3 1 3 2 2 4 3 3 2 7 4 2 5 6 5 6 6 15 17 18 24 24 24 22 21 18 16 14 12 11 8 6 4 3 1 1 2 3 4 5
4 3 1 2 2 2 4 3 2 5 2 2 4 6 10 8 6 8 6 4 4 10 16 18 23 23 23 22 22 20 17 14 13 11 10 9 8 6 4 4 4 4 5 6
5 4 1 1 2 5 1 5 2 0 3 5 5 6 8 6 5 9 9 5 3 6 13 16 22 23 22 21 20 18 16 15 13 13 12 11 10 9 8 8 8 7 7 7
3 2 3 2 7 7 4 4 1 2 2 3 4 4 4 5 3 4 7 6 4 7 12 15 22 23 22 19 18 17 17 16 16 16 14 14 12 11 11 11 12 11 10 9
4 2 3 2 3 4 2 4 8 4 5 2 3 9 4 6 6 4 4 6 4 5 7 13 20 21 21 21 19 19 17 17 19 17 17 15 13 13 12 13 13 14 14 12
7 3 2 2 3 1 6 5 4 3 1 6 4 6 1 4 7 3 4 7 4 3 6 10 17 20 20 19 17 17 18 19 18 18 19 17 15 13 11 11 13 15 15 15
3 1 4 4 3 5 5 6 11 5 4 5 11 21 10 11 11 7 4 7 9 6 6 9 13 19 18 18 18 19 19 18 18 19 20 18 15 12 10 11 12 14 16 16
2 5 2 3 3 3 3 5 13 13 14 11 19 20 11 7 4 7 12 12 10 9 7 9 12 18 19 18 18 20 18 17 18 19 20 17 13 11 10 11 12 13 15 17
0 3 4 4 3 8 5 9 12 18 13 20 21 25 19 15 12 10 9 10 9 9 8 7 11 16 17 17 16 18 17 18 18 19 19 16 12 11 11 12 13 15 16 17
6 6 3 3 3 4 8 12 20 10 9 13 14 20 10 3 4 9 10 10 11 9 7 6 9 12 12 14 15 15 15 15 17 17 15 14 11 11 12 13 15 17 19 19
6 5 1 1 2 7 2 3 6 17 11 18 12 14 2 3 9 11 9 11 11 8 7 4 8 9 9 10 11 11 11 12 12 10 11 10 9 11 12 14 17 20 21 23
1 4 3 3 5 8 5 6 7 8 7 15 19 17 8 4 4 3 8 8 5 5 7 4 3 6 7 7 8 7 6 5 5 5 5 7 9 12 15 18 21 23 23 25
3 3 2 4 5 7 0 2 4 3 7 3 8 5 5 3 2 2 12 9 7 9 7 6 8 11 11 7 4 5 5 4 2 4 8 12 14 17 21 25 28 28 26 26
4 3 10 7 7 8 4 6 5 5 2 3 3 2 5 2 3 2 6 11 13 14 14 12 12 13 11 8 6 5 4 5 8 11 14 16 18 21 23 25 26 25 24 23
10 10 5 4 5 10 9 7 6 2 2 4 3 3 1 3 4 5 7 9 12 13 14 13 11 11 11 10 8 8 7 11 14 15 17 18 20 21 21 23 24 22 21 21
5 6 7 10 7 2 12 3 4 1 3 3 1 3 5 3 4 4 6 9 11 11 11 11 10 9 12 14 13 10 11 15 17 18 19 20 20 20 20 20 19 16 16 16
4 4 3 3 5 8 6 4 3 3 4 5 5 5 5 4 5 5 6 8 8 9 10 10 9 9 10 13 13 12 14 18 18 18 18 18 17 17 17 16 13 13 13 14
2 11 6 5 4 3 1 3 4 7 7 8 9 9 8 5 7 6 6 8 8 9 10 10 10 10 10 12 12 13 16 17 17 17 16 14 14 14 15 13 13 13 15 15
6 6 6 6 2 2 5 5 5 8 7 6 6 7 9 8 7 6 6 7 8 8 9 9 9 10 11 12 12 13 16 16 16 16 15 16 16 15 14 15 17 14 17 19
Wind_Direction
29 129 99 52 34 72 107 138 254 189 40 291 262 271 266 218 219 225 220 213 212 210 196 188 185 182 174 162 146 126 110 99 112 112 93 71 66 61 57 51 47 44 42 39
118 78 56 49 50 76 110 228 254 192 9 268 296 280 269 229 227 223 219 216 212 205 192 192 193 192 191 182 170 150 128 111 101 101 101 100 87 74 65 55 49 46 42 41
101 119 193 156 117 135 36 290 287 305 314 230 300 268 258 235 236 231 228 223 214 205 197 194 195 198 196 194 186 173 155 131 115 110 108 108 94 77 67 51 46 43 43 41
74 145 157 133 113 206 172 70 351 318 297 307 343 297 281 243 246 230 234 222 215 206 202 197 195 198 198 196 189 180 171 157 140 124 115 113 101 92 75 63 52 47 45 41
118 129 141 121 59 335 95 138 120 117 274 306 127 266 257 254 277 257 233 224 217 205 199 196 196 199 197 193 191 188 182 176 168 148 135 117 108 105 103 86 70 56 44 40
83 42 20 75 76 53 137 122 105 102 316 248 46 276 294 224 230 298 332 231 218 208 200 197 197 193 194 194 194 193 192 192 188 175 155 137 120 113 102 76 61 47 41 34
113 58 79 25 109 112 207 190 253 252 209 278 69 247 268 276 293 294 300 283 223 208 199 194 188 190 193 195 196 197 198 200 199 196 190 176 157 128 102 72 50 39 30 22
179 189 149 19 3 277 167 258 211 243 255 327 126 245 256 67 325 299 289 287 249 211 201 196 193 192 195 196 197 198 200 201 202 204 206 208 209 214 233 321 360 7 9 3
143 121 58 71 110 319 151 224 20 106 88 270 245 265 272 99 43 20 336 287 253 215 209 199 195 195 196 196 198 198 200 202 205 209 213 221 227 234 246 270 289 306 322 333
166 114 3 84 148 72 255 137 137 246 219 241 239 272 255 336 12 360 10 334 271 218 210 206 199 196 197 198 198 199 203 206 210 217 223 229 236 244 252 258 264 271 284 303
135 266 124 152 213 180 156 189 128 325 256 250 284 252 187 224 275 327 344 329 278 222 212 209 204 200 196 194 194 200 206 209 215 221 228 234 240 246 254 259 259 259 265 277
167 105 173 150 73 353 320 207 190 220 199 253 340 270 176 249 271 259 319 342 314 264 239 222 208 198 193 194 195 200 205 210 217 221 227 235 241 244 251 257 258 254 254 262
183 189 156 182 120 30 248 205 178 98 39 201 235 251 166 259 252 225 303 319 340 286 235 217 210 203 196 193 195 202 209 214 218 221 226 229 233 238 248 258 260 253 251 255
134 134 238 230 115 116 194 199 202 187 189 219 230 272 232 260 270 297 327 330 316 283 240 219 211 201 195 194 199 206 214 216 217 219 222 222 228 242 253 264 264 256 253 254
180 201 217 283 222 194 196 172 190 205 213 213 263 248 262 269 309 314 307 307 299 289 250 223 209 200 192 196 208 217 220 218 220 219 220 222 235 248 260 268 266 258 253 258
323 189 138 275 232 229 246 218 211 221 234 249 260 276 273 280 273 281 298 300 290 289 279 233 209 199 196 202 211 219 220 220 217 215 221 223 239 254 268 269 265 257 256 259
169 149 149 250 337 288 265 208 202 200 209 221 232 244 292 278 293 301 304 298 293 300 302 250 217 205 203 211 217 216 210 205 210 217 220 228 246 266 274 275 270 264 261 260
148 131 140 264 263 249 348 131 194 213 237 214 256 256 266 273 296 298 303 288 288 303 306 252 201 193 192 191 189 187 188 196 206 215 224 241 265 273 281 283 280 278 268 261
274 141 140 207 215 307 238 198 180 180 261 213 225 255 267 270 296 187 11 342 306 322 321 242 156 135 136 141 157 161 162 172 186 217 252 271 283 288 290 290 291 290 278 264
89 49 219 150 225 236 88 162 155 170 267 167 195 232 200 183 217 68 354 360 39 48 40 78 100 100 93 77 121 136 125 129 83 320 303 300 302 301 296 292 290 288 280 269
162 188 216 206 242 281 226 143 161 180 270 131 150 128 154 158 22 56 37 45 55 60 58 68 75 75 60 53 67 76 55 25 334 317 310 309 311 307 299 293 289 286 279 266
170 165 180 167 214 267 147 113 201 75 65 95 102 93 67 341 355 72 68 62 52 49 43 43 58 58 40 31 24 24 16 341 332 325 320 319 315 309 302 296 292 283 271 261
209 197 181 197 206 60 191 40 102 68 118 100 72 9 330 336 51 68 72 60 53 46 38 33 40 37 23 19 14 8 346 337 333 329 327 324 317 312 309 302 294 283 269 256
226 174 210 174 192 221 199 147 88 69 98 81 65 60 41 87 46 62 63 50 40 35 29 21 24 23 15 4 2 357 343 338 335 332 329 326 319 315 316 311 299 283 270 260
131 151 176 259 261 131 140 99 123 106 97 100 80 69 62 85 60 53 49 38 28 20 17 16 11 2 354 348 347 344 339 335 333 332 327 321 318 315 314 309 299 287 276 266
191 171 187 243 141 131 107 122 112 114 100 90 110 95 68 68 66 56 53 31 16 10 4 2 356 349 341 336 334 336 335 333 332 329 324 319 317 314 312 310 307 292 283 278